Imperial, NE

8:24 AM MST on December 15, 2017 (GMT -0700)
Imperial Municipal

Weather History for KIML - October, 2012

Change the Weather History Date:

Thursday, October 25, 2012

  Actual Average Record
Temperature  
Mean Temperature 33 °F 47 °F  
Max Temperature 41 °F 61 °F 87 °F (1959)
Min Temperature 25 °F 33 °F 13 °F (1942)
Degree Days  
Heating Degree Days 32 18  
Month to date heating degree days 368 329  
Cooling Degree Days 0 0  
Month to date cooling degree days 4 3  
Year to date cooling degree days 1382 960  
Moisture  
Dew Point 28 °F    
Average Humidity 76    
Maximum Humidity 92    
Minimum Humidity 59    
Precipitation  
Precipitation 0.19 in 0.04 in 1.80 in (1918)
Sea Level Pressure  
Sea Level Pressure 30.20 in    
Wind  
Wind Speed 11 mph (NNW)    
Max Wind Speed 29 mph    
Max Gust Speed 36 mph    
Visibility 6 miles    
Events Snow    
T = Trace of Precipitation, MM = Missing Value Source: NWS Daily Summary

Daily Weather History Graph

Daily Weather History Graph

Search for Another Location

Airport or City:

Trip Planner

Search our weather history database for the weather conditions in past years. The results will help you decide how hot, cold, wet, or windy it might be!

Date:

Astronomy

Oct. 25, 2012 Rise Set
Actual Time 7:09 AM MDT 5:51 PM MDT
Civil Twilight 6:41 AM MDT 6:19 PM MDT
Nautical Twilight 6:09 AM MDT 6:51 PM MDT
Astronomical Twilight 5:37 AM MDT 7:22 PM MDT
Moon 3:39 PM MDT (10/25) 3:06 AM MDT (10/25)
Length of Visible Light 11h 38m
Length of Day
10h 42m
Waxing Gibbous, 85% of the Moon is Illuminated
Oct 25
Waxing Gibbous
Oct 29
Full
Nov 6
Last Quarter
Nov 13
New
Nov 20
First Quarter

Hourly Weather History & Observations

Time (MDT) Temp. Windchill Dew Point Humidity Pressure Visibility Wind Dir Wind Speed Gust Speed Precip Events Conditions
12:05 AM 32.0 °F 20.5 °F 30.2 °F 93% 29.97 in 1.0 mi North 18.4 mph 24.2 mph 0.00 in Snow Light Snow
12:53 AM 32.0 °F 21.2 °F 30.9 °F 96% 30.04 in 1.2 mi NNW 16.1 mph - 0.00 in Snow Light Snow
1:00 AM 32.0 °F 20.8 °F 30.2 °F 93% 30.01 in 1.2 mi North 17.3 mph - 0.00 in Snow Light Snow
1:29 AM 33.8 °F 23.2 °F 30.2 °F 87% 30.00 in 1.2 mi North 17.3 mph - 0.00 in Snow Light Snow
1:53 AM 32.0 °F 19.8 °F 30.9 °F 96% 30.05 in 1.2 mi North 20.7 mph - 0.00 in Snow Light Snow
2:22 AM 32.0 °F 20.8 °F 30.2 °F 93% 30.03 in 1.2 mi North 17.3 mph 31.1 mph 0.01 in Snow Light Snow
2:39 AM 32.0 °F 20.5 °F 30.2 °F 93% 30.03 in 2.0 mi North 18.4 mph - 0.01 in Snow Light Snow
2:49 AM 32.0 °F 20.1 °F 30.2 °F 93% 30.04 in 2.5 mi North 19.6 mph - N/A Snow Light Snow
2:53 AM 32.0 °F 20.5 °F 30.0 °F 92% 30.07 in 3.0 mi North 18.4 mph - 0.01 in Snow Light Snow
3:53 AM 32.0 °F 19.8 °F 30.0 °F 92% 30.08 in 4.0 mi NNW 20.7 mph - 0.00 in Snow Light Snow
4:18 AM 32.0 °F 20.1 °F 30.2 °F 93% 30.06 in 3.0 mi NNW 19.6 mph - 0.01 in Snow Light Snow
4:25 AM 32.0 °F 18.9 °F 30.2 °F 93% 30.07 in 2.0 mi NNW 24.2 mph 27.6 mph 0.01 in Snow Light Snow
4:40 AM 30.2 °F 16.2 °F 28.4 °F 93% 30.08 in 3.0 mi North 25.3 mph 34.5 mph 0.01 in Snow Light Snow
4:53 AM 30.9 °F 19.4 °F 28.9 °F 92% 30.14 in 4.0 mi NNW 17.3 mph 27.6 mph 0.01 in Snow Light Snow
5:00 AM 30.2 °F 17.4 °F 28.4 °F 93% 30.11 in 5.0 mi NNW 20.7 mph 28.8 mph 0.00 in Snow Light Snow
5:10 AM 30.2 °F 17.4 °F 28.4 °F 93% 30.11 in 2.5 mi NNW 20.7 mph 28.8 mph 0.00 in Snow Light Snow
5:20 AM 30.2 °F 16.8 °F 28.4 °F 93% 30.12 in 1.8 mi NNW 23.0 mph - 0.00 in Snow Light Snow
5:30 AM 30.2 °F 17.1 °F 28.4 °F 93% 30.12 in 2.0 mi NNW 21.9 mph 27.6 mph 0.00 in Snow Light Snow
5:45 AM 30.2 °F 18.1 °F 28.4 °F 93% 30.13 in 1.8 mi NNW 18.4 mph - 0.00 in Snow Light Snow
5:49 AM 30.2 °F 18.1 °F 28.4 °F 93% 30.13 in 2.0 mi North 18.4 mph - 0.00 in Snow Light Snow
5:53 AM 30.9 °F 19.1 °F 28.9 °F 92% 30.17 in 2.0 mi NNW 18.4 mph - 0.00 in Snow Light Snow
6:14 AM 30.2 °F 18.9 °F 28.4 °F 93% 30.14 in 3.0 mi North 16.1 mph - 0.00 in Snow Light Snow
6:53 AM 30.0 °F 20.5 °F 28.0 °F 92% 30.21 in 10.0 mi NNW 11.5 mph - 0.00 in   Overcast
7:53 AM 30.0 °F 19.5 °F 27.0 °F 88% 30.24 in 10.0 mi NW 13.8 mph - N/A   Mostly Cloudy
8:53 AM 30.9 °F 20.7 °F 27.0 °F 85% 30.25 in 10.0 mi NNW 13.8 mph - N/A   Clear
9:53 AM 32.0 °F 21.6 °F 28.0 °F 85% 30.29 in 10.0 mi NNW 15.0 mph - N/A   Clear
10:53 AM 34.0 °F 23.8 °F 28.0 °F 79% 30.29 in 10.0 mi NNW 16.1 mph - 0.12 in   Clear
11:53 AM 36.0 °F 26.7 °F 27.0 °F 70% 30.30 in 10.0 mi North 15.0 mph - 0.05 in   Clear
12:53 PM 37.9 °F 29.6 °F 27.0 °F 65% 30.29 in 10.0 mi North 13.8 mph - N/A   Clear
1:53 PM 39.0 °F 33.4 °F 28.0 °F 65% 30.28 in 10.0 mi North 8.1 mph - N/A   Clear
2:53 PM 39.9 °F 32.1 °F 28.0 °F 63% 30.29 in 10.0 mi North 13.8 mph - N/A   Clear
3:53 PM 39.9 °F 33.9 °F 27.0 °F 60% 30.30 in 10.0 mi North 9.2 mph - N/A   Clear
4:53 PM 39.0 °F 32.3 °F 26.1 °F 60% 30.33 in 10.0 mi North 10.4 mph - N/A   Clear
5:53 PM 32.0 °F 26.4 °F 26.1 °F 79% 30.36 in 10.0 mi North 5.8 mph - N/A   Clear
6:53 PM 30.0 °F 23.2 °F 25.0 °F 82% 30.38 in 10.0 mi North 6.9 mph - N/A   Clear
7:53 PM 28.9 °F 23.9 °F 25.0 °F 85% 30.40 in 10.0 mi NNW 4.6 mph - N/A   Clear
8:53 PM 28.0 °F 22.8 °F 24.1 °F 85% 30.42 in 10.0 mi North 4.6 mph - N/A   Clear
9:53 PM 25.0 °F 20.7 °F 21.9 °F 88% 30.45 in 10.0 mi NNW 3.5 mph - N/A   Partly Cloudy
10:13 PM 26.6 °F - 24.8 °F 93% 30.36 in 10.0 mi Calm Calm - N/A   Mostly Cloudy
10:53 PM 28.0 °F - 25.0 °F 88% 30.45 in 10.0 mi Calm Calm - N/A   Overcast
11:21 PM 26.6 °F 22.6 °F 23.0 °F 86% 30.36 in 10.0 mi NNE 3.5 mph - N/A   Scattered Clouds
11:53 PM 25.0 °F - 23.0 °F 92% 30.46 in 10.0 mi Calm Calm - N/A   Clear